Regional Weather Roundup
Issued by NWS Newport/Morehead, NC

Current Version | Previous Version | Graphics & Text | Print | Product List | Glossary Off
Versions: 1 2 3 4 5 6 7 8 9 10 11 12 13 14 15 16 17 18 19 20 21 22 23 24 25 26 27 28 29 30 31 32 33 34 35 36 37 38 39 40 41 42 43 44 45 46 47 48 49 50
481 ASUS42 KMHX 181925 RWRMHX WEATHER ROUNDUP FOR EASTERN NORTH CAROLINA NATIONAL WEATHER SERVICE NEWPORT/MOREHEAD CITY NC 200 PM EST SAT NOV 18 2017 NOTE: "FAIR" INDICATES FEW OR NO CLOUDS BELOW 12,000 FEET WITH NO SIGNIFICANT WEATHER AND/OR OBSTRUCTIONS TO VISIBILITY NCZ015>017-031-032-045>047-102-103-182000- NORTH COAST CITY SKY/WX TMP DP RH WIND PRES REMARKS EDENTON MOSUNNY 67 52 58 SW14G22 29.85F ELIZABETH CITY MOSUNNY 64 50 60 S15G25 29.85F KITTY HAWK PTCLDY 62 49 63 S6 29.85F MANTEO SUNNY 60 51 72 S16 29.87F $$ NCZ045>047-081-094-103-104-182000- CENTRAL COAST CITY SKY/WX TMP DP RH WIND PRES REMARKS FRISCO SUNNY 65 57 75 SW14 29.93F $$ NCZ095-097-098-100-101-182000- SOUTHERN COAST CITY SKY/WX TMP DP RH WIND PRES REMARKS BEAUFORT MOSUNNY 66 58 75 S14 29.92F CEDAR ISLAND NOT AVBL JACKSONVILLE SUNNY 69 48 47 S16G25 29.90F PINEY ISLAND NOT AVBL WILMINGTON MOSUNNY 70 55 59 S14 29.91F $$ NCZ011>013-027>030-043-044-078>080-089-090>093-098-182000- COASTAL PLAIN CITY SKY/WX TMP DP RH WIND PRES REMARKS AHOSKIE SUNNY 65 48 54 S8 29.82F CLINTON MOSUNNY 69 54 57 S10G17 29.87F ELIZABETHTOWN NOT AVBL GOLDSBORO MOSUNNY 69 50 50 SW20G29 29.84F GREENVILLE SUNNY 70 50 49 SW14G26 29.87F HAVELOCK SUNNY 68 50 52 S16G24 29.91F KENANSVILLE CLOUDY 68 52 56 SW7 29.88F KINSTON SUNNY 70 50 49 SW16 29.87F NEW BERN SUNNY 68 50 52 S13 29.90F RICHLANDS PTSUNNY 71 52 50 S14 29.90F ROCKY MOUNT CLOUDY 67 50 54 SW20G33 29.84F WASHINGTON MOSUNNY 69 51 51 SW15 29.86F WHITEVILLE MOSUNNY 69 55 61 S14 29.89F $$ AMZ130-135-150-152-154-156-158-170-250-252-270-ANZ085-086-088-633-658-670-182000- MARINE OBSERVATIONS STATION/POSITION TIME TEMP WIND PRES WAVE SWELL AIR SEA DIR/SP/G HT/PER HT/PER (UTC) (F) (DEG/KT/KT) (MB) (FT/S) (FT/S) CHESAPEAKE LIGHT NOT AVBL 64 E VA BEACH 1850 61 61 210/ 21/ 25 1011.3 4/ 4 2/11 DUCK NOT AVBL 2 E DUCK 1900 60 N/A 2/12 2/12 OREGON INLET NOT AVBL 13E OREGON INLT 1848 62 N/A 2/11 2/11 HATTERAS CG NOT AVBL DIAMOND BUOY 1910 66 65 230/ 10/ 16 1013.5 CAPE LOOKOUT 1900 66 200/ 11/ 13 1013.6 BEAUFORT LAB NOT AVBL 30 SE NEW RVR IN 1908 69 70 190/ 14/ 19 1013.4 30 SE NEW RVR IN 1900 70 N/A 3/ 8 2/11 27 SE WRIGHTSVLE 1908 68 67 190/ 12/ 17 1012.7 5 SE WRIGHTSVLE 1908 65 64 200/ 8/ 12 1013.2 225 S CAPE HAT 1850 70 77 150/ 6/ 10 1016.0 6/ 8 5/ 8 41 SE CHARLESTON 1910 73 76 240/ 16/ 17 1012.7 $$

USA.gov is the U.S. government's official web portal to all federal, state and local government web resources and services.